User: anonymous   Login
Location: Unspecified
(0.0000°N, 0.0000°E)
Time: 17:03:13
(UTC+01:00)
Language:

Orbus 21S - Orbit

View from above orbital plane
View from above orbital plane
View from above satellite
View from above satellite

Ground track
Ground track

The orbit data is extracted from the following two-line orbital elements,

1 20669U 90056C   15086.85339157  .00003457  00000-0  13777-2 0  9990
2 20669 024.3192 065.3071 7136628 160.5064 349.9639 02.45223919207338
Epoch (UTC): 27 March 2015 20:28:53
Eccentricity: 0.7136628
inclination: 24.3192°
perigee height: 273 km
apogee height: 33428 km
right ascension of ascending node: 65.3071°
argument of perigee: 160.5064°
revolutions per day: 2.45223919
mean anomaly at epoch: 349.9639°
orbit number at epoch: 20733

The dashed part of the orbit path shows where the satellite is in the earth's shadow,  

DLR